Chetek Municipal Southworth A, WI

6:41 PM CST on November 19, 2017 (GMT -0600)
Chetek Municipal Southworth A

Weather History for KY23 - February, 2014

Change the Weather History Date:

Monday, February 10, 2014

  Actual Average (KRPD) Record (KRPD)
Temperature  
Mean Temperature -7 °F -  
Max Temperature 4 °F 25 °F 47 °F (2009)
Min Temperature -18 °F 7 °F -25 °F (2011)
Degree Days  
Heating Degree Days 72    
Moisture  
Dew Point -16 °F    
Average Humidity 71    
Maximum Humidity 83    
Minimum Humidity 52    
Precipitation  
Precipitation 0.00 in - - ()
Sea Level Pressure  
Sea Level Pressure 30.38 in    
Wind  
Wind Speed 2 mph (West)    
Max Wind Speed 8 mph    
Max Gust Speed -    
Visibility 10 miles    
Events      
Averages and records for this station are not official NWS values.
T = Trace of Precipitation, MM = Missing Value Source: NWS Daily Summary

Daily Weather History Graph

Daily Weather History Graph

Search for Another Location

Airport or City:

Trip Planner

Search our weather history database for the weather conditions in past years. The results will help you decide how hot, cold, wet, or windy it might be!

Date:

Astronomy

Feb. 10, 2014 Rise Set
Actual Time 7:15 AM CST 5:26 PM CST
Civil Twilight 6:44 AM CST 5:57 PM CST
Nautical Twilight 6:09 AM CST 6:32 PM CST
Astronomical Twilight 5:35 AM CST 7:06 PM CST
Moon 1:51 PM CST (2/10) 4:13 AM CST (2/10)
Length of Visible Light 11h 13m
Length of Day
10h 11m
Waxing Gibbous, 85% of the Moon is Illuminated
Feb 10
Waxing Gibbous
Feb 14
Full
Feb 22
Last Quarter
Mar 1
New
Mar 8
First Quarter

Hourly Weather History & Observations

Time (CST) Temp. Windchill Dew Point Humidity Pressure Visibility Wind Dir Wind Speed Gust Speed Precip Events Conditions
12:15 AM -11.7 °F - -15.5 °F 83% 30.31 in 10.0 mi Calm Calm - N/A   Clear
12:35 AM -11.2 °F - -15.5 °F 81% 30.31 in 10.0 mi Calm Calm - N/A   Clear
12:55 AM -12.1 °F - -15.9 °F 83% 30.32 in 10.0 mi Calm Calm - N/A   Clear
1:15 AM -12.5 °F - -16.4 °F 82% 30.32 in 10.0 mi Calm Calm - N/A   Clear
1:35 AM -14.6 °F - -19.1 °F 80% 30.32 in 10.0 mi Calm Calm - N/A   Clear
1:55 AM -14.6 °F -24.5 °F -18.8 °F 82% 30.33 in 10.0 mi WNW 3.5 mph - N/A   Clear
2:15 AM -13.5 °F - -17.9 °F 81% 30.34 in 10.0 mi Calm Calm - N/A   Clear
2:35 AM -13.9 °F - -18.4 °F 80% 30.34 in 10.0 mi Calm Calm - N/A   Clear
2:55 AM -14.6 °F - -19.3 °F 79% 30.34 in 10.0 mi Calm Calm - N/A   Clear
3:15 AM -14.3 °F - -18.9 °F 79% 30.33 in 10.0 mi Calm Calm - N/A   Clear
3:35 AM -13.9 °F - -18.4 °F 80% 30.34 in 10.0 mi Calm Calm - N/A   Clear
3:55 AM -14.8 °F - -19.3 °F 80% 30.34 in 10.0 mi Calm Calm - N/A   Clear
4:15 AM -15.0 °F -25.0 °F -19.3 °F 81% 30.35 in 10.0 mi West 3.5 mph - N/A   Clear
4:35 AM -15.5 °F -25.6 °F -20.0 °F 80% 30.35 in 10.0 mi West 3.5 mph - N/A   Clear
4:55 AM -16.2 °F - -21.3 °F 78% 30.36 in 10.0 mi Calm Calm - N/A   Clear
5:15 AM -16.6 °F - -21.1 °F 80% 30.36 in 10.0 mi Calm Calm - N/A   Clear
5:35 AM -16.6 °F - -21.5 °F 79% 30.36 in 10.0 mi Calm Calm - N/A   Clear
5:55 AM -17.0 °F - -21.8 °F 79% 30.37 in 10.0 mi Calm Calm - N/A   Clear
6:15 AM -16.8 °F - -21.6 °F 79% 30.37 in 10.0 mi Calm Calm - N/A   Clear
6:35 AM -17.5 °F - -22.2 °F 79% 30.38 in 10.0 mi Calm Calm - N/A   Clear
6:55 AM -17.7 °F - -22.0 °F 81% 30.38 in 10.0 mi Calm Calm - N/A   Clear
7:15 AM -18.4 °F -28.9 °F -23.1 °F 79% 30.38 in 10.0 mi WSW 3.5 mph - N/A   Clear
7:35 AM -17.9 °F - -22.7 °F 78% 30.39 in 10.0 mi Calm Calm - N/A   Clear
7:55 AM -17.0 °F -27.2 °F -21.5 °F 80% 30.39 in 10.0 mi West 3.5 mph - N/A   Clear
8:15 AM -14.8 °F -24.8 °F -19.7 °F 79% 30.39 in 10.0 mi West 3.5 mph - N/A   Clear
8:35 AM -11.7 °F -21.3 °F -17.0 °F 78% 30.39 in 10.0 mi West 3.5 mph - N/A   Clear
8:55 AM -10.7 °F -20.0 °F -16.2 °F 76% 30.40 in 10.0 mi WNW 3.5 mph - N/A   Clear
9:15 AM -10.3 °F -25.4 °F -16.1 °F 76% 30.40 in 10.0 mi West 6.9 mph - N/A   Clear
9:35 AM -9.6 °F -24.5 °F -15.9 °F 74% 30.41 in 10.0 mi WNW 6.9 mph - N/A   Clear
9:55 AM -8.9 °F -22.1 °F -15.7 °F 72% 30.41 in 10.0 mi WNW 5.8 mph - N/A   Clear
10:15 AM -7.8 °F -19.0 °F -15.2 °F 70% 30.41 in 10.0 mi WNW 4.6 mph - N/A   Clear
10:35 AM -6.9 °F -15.7 °F -15.3 °F 67% 30.41 in 10.0 mi West 3.5 mph - N/A   Clear
10:55 AM -5.6 °F -18.2 °F -14.8 °F 65% 30.40 in 10.0 mi West 5.8 mph - N/A   Clear
11:15 AM -4.7 °F -13.2 °F -14.8 °F 62% 30.41 in 10.0 mi West 3.5 mph - N/A   Clear
11:35 AM -3.1 °F - -14.1 °F 59% 30.40 in 10.0 mi Calm Calm - N/A   Clear
11:55 AM -2.4 °F -12.7 °F -13.7 °F 59% 30.39 in 10.0 mi West 4.6 mph - N/A   Clear
12:15 PM -1.3 °F -13.1 °F -13.2 °F 57% 30.39 in 10.0 mi West 5.8 mph - N/A   Clear
12:35 PM -0.0 °F -9.9 °F -12.5 °F 56% 30.38 in 10.0 mi West 4.6 mph - N/A   Clear
12:55 PM 0.9 °F -8.9 °F -11.9 °F 55% 30.38 in 10.0 mi West 4.6 mph - N/A   Clear
1:15 PM 1.4 °F -11.3 °F -12.1 °F 53% 30.38 in 10.0 mi WSW 6.9 mph - N/A   Clear
1:35 PM 1.8 °F -12.0 °F -11.7 °F 53% 30.37 in 10.0 mi WSW 8.1 mph - N/A   Clear
1:55 PM 2.5 °F -7.0 °F -11.0 °F 53% 30.37 in 10.0 mi West 4.6 mph - N/A   Clear
2:15 PM 3.2 °F -9.1 °F -10.5 °F 53% 30.37 in 10.0 mi West 6.9 mph - N/A   Clear
2:35 PM 3.7 °F -8.4 °F -10.1 °F 53% 30.37 in 10.0 mi WSW 6.9 mph - N/A   Clear
2:55 PM 4.1 °F -8.0 °F -10.1 °F 52% 30.37 in 10.0 mi WSW 6.9 mph - N/A   Clear
3:15 PM 3.9 °F -9.4 °F -10.3 °F 52% 30.37 in 10.0 mi WSW 8.1 mph - N/A   Clear
3:35 PM 3.9 °F -6.9 °F -10.1 °F 52% 30.37 in 10.0 mi West 5.8 mph - N/A   Clear
3:55 PM 3.6 °F -9.8 °F -10.3 °F 53% 30.38 in 10.0 mi West 8.1 mph - N/A   Clear
4:10 PM 3.2 °F -6.2 °F -10.3 °F 54% 30.38 in 10.0 mi West 4.6 mph - N/A   Clear
4:35 PM 3.0 °F -8.0 °F -10.3 °F 54% 30.38 in 10.0 mi West 5.8 mph - N/A   Clear
4:55 PM 2.7 °F -8.4 °F -10.3 °F 55% 30.39 in 10.0 mi West 5.8 mph - N/A   Clear
5:15 PM 1.6 °F -8.0 °F -10.7 °F 57% 30.39 in 10.0 mi West 4.6 mph - N/A   Clear
5:35 PM 0.5 °F - -11.0 °F 58% 30.39 in 10.0 mi Calm Calm - N/A   Clear
5:55 PM -0.2 °F - -11.4 °F 59% 30.40 in 10.0 mi Calm Calm - N/A   Clear
6:15 PM -0.9 °F -8.9 °F -11.7 °F 60% 30.40 in 10.0 mi WSW 3.5 mph - N/A   Clear
6:35 PM -0.9 °F -8.9 °F -11.4 °F 61% 30.40 in 10.0 mi WSW 3.5 mph - N/A   Clear
6:55 PM -2.0 °F -10.1 °F -12.1 °F 62% 30.40 in 10.0 mi WSW 3.5 mph - N/A   Clear
7:15 PM -4.2 °F -12.6 °F -13.2 °F 65% 30.40 in 10.0 mi West 3.5 mph - N/A   Clear
7:35 PM -6.5 °F - -14.4 °F 69% 30.40 in 10.0 mi Calm Calm - N/A   Clear
7:55 PM -8.0 °F - -14.6 °F 73% 30.40 in 10.0 mi Calm Calm - N/A   Clear
8:15 PM -8.1 °F - -14.3 °F 75% 30.40 in 10.0 mi Calm Calm - N/A   Clear
8:35 PM -8.5 °F - -13.9 °F 77% 30.41 in 10.0 mi Calm Calm - N/A   Clear
8:55 PM -9.8 °F - -15.0 °F 78% 30.42 in 10.0 mi Calm Calm - N/A   Clear
9:15 PM -9.9 °F - -15.3 °F 77% 30.42 in 10.0 mi Calm Calm - N/A   Clear
9:35 PM -11.4 °F - -16.1 °F 80% 30.42 in 10.0 mi Calm Calm - N/A   Clear
9:55 PM -14.3 °F - -18.8 °F 80% 30.42 in 10.0 mi Calm Calm - N/A   Clear
10:15 PM -13.2 °F - -17.7 °F 80% 30.43 in 10.0 mi Calm Calm - N/A   Clear
10:35 PM -14.4 °F - -18.6 °F 82% 30.43 in 10.0 mi North - - N/A   Clear
10:55 PM -15.5 °F - -19.5 °F 82% 30.42 in 10.0 mi Calm Calm - N/A   Clear
11:15 PM -16.1 °F - -20.6 °F 80% 30.42 in 10.0 mi Calm Calm - N/A   Clear
11:35 PM -17.3 °F - -21.5 °F 81% 30.42 in 10.0 mi Calm Calm - N/A   Clear
11:55 PM -16.8 °F - -21.5 °F 79% 30.42 in 10.0 mi Calm Calm - N/A   Clear